AFR941 FIMP-LFPG

Flight info

Callsign AFR941
Flight time N/A
Altitude 32000
Route NIBIS2A NIBIS UG661 DV UA401 NIBOT/N0502F340 UA401 NN UW325 SIPKI/N0505F330 UT325 POGBA/N0502F340 UT325 FL UM731 BUNLU/N0494F360 UM731 DIR UB730 DJA UM2 CSO UM998 KAMER/N0479F380 DCT NAFOQ DCT SURJU DCT PADKO DCT MRM DCT MTL DCT ETREK DCT RUSIT DCT BULOL DCT LOGNI DCT MOKIP DCT ARFOZ DCT TINIL
Aircraft B77W/H-SDE1E2E3FGHIJ2J3J4J5M1RWXY/LB1D1

Departure

Time 2026-05-07 23:08
Airport Sir Seewoosagur Ramgoolam International Airport (FIMP)

Arrival

Time N/A
Airport Charles de Gaulle International Airport (LFPG)
Time Latitude Longitude Altitude Speed Heading
2026-05-07 22:37 -20.43206 57.67911 204 ft 0 kts 225°
2026-05-07 22:57 -20.43200 57.67918 206 ft 4 kts 225°
2026-05-07 22:58 -20.43180 57.67938 206 ft 4 kts 223°
2026-05-07 22:58 -20.43161 57.67957 206 ft 4 kts 223°
2026-05-07 22:58 -20.43144 57.67974 206 ft 4 kts 237°
2026-05-07 22:58 -20.43138 57.67999 206 ft 4 kts 283°
2026-05-07 22:59 -20.43147 57.68026 206 ft 3 kts 297°
2026-05-07 22:59 -20.43148 57.68029 206 ft 3 kts 297°
2026-05-07 23:01 -20.43146 57.68023 191 ft 1 kts 297°
2026-05-07 23:01 -20.43142 57.68016 191 ft 1 kts 297°
2026-05-07 23:01 -20.43139 57.68009 206 ft 1 kts 297°
2026-05-07 23:02 -20.43136 57.68002 206 ft 1 kts 297°
2026-05-07 23:02 -20.43118 57.67966 206 ft 11 kts 296°
2026-05-07 23:02 -20.43084 57.67892 204 ft 11 kts 296°
2026-05-07 23:02 -20.43049 57.67818 201 ft 11 kts 296°
2026-05-07 23:03 -20.43015 57.67745 203 ft 11 kts 298°
2026-05-07 23:03 -20.42977 57.67673 203 ft 11 kts 303°
2026-05-07 23:03 -20.42953 57.67642 206 ft 0 kts 309°
2026-05-07 23:03 -20.42952 57.67642 204 ft 2 kts 309°
2026-05-07 23:04 -20.42916 57.67619 201 ft 7 kts 338°
2026-05-07 23:04 -20.42870 57.67596 198 ft 7 kts 330°
2026-05-07 23:04 -20.42827 57.67566 198 ft 7 kts 324°
2026-05-07 23:04 -20.42787 57.67534 203 ft 7 kts 323°
2026-05-07 23:05 -20.42746 57.67503 204 ft 7 kts 328°
2026-05-07 23:05 -20.42700 57.67479 204 ft 7 kts 339°
2026-05-07 23:05 -20.42651 57.67465 204 ft 7 kts 354°
2026-05-07 23:05 -20.42630 57.67467 203 ft 0 kts
2026-05-07 23:06 -20.42617 57.67473 211 ft 4 kts 27°
2026-05-07 23:06 -20.42598 57.67494 205 ft 4 kts 57°
2026-05-07 23:06 -20.42591 57.67524 206 ft 5 kts 88°
2026-05-07 23:06 -20.42624 57.67578 202 ft 12 kts 143°
2026-05-07 23:07 -20.42687 57.67652 204 ft 17 kts 121°
2026-05-07 23:07 -20.42776 57.67833 204 ft 60 kts 117°
2026-05-07 23:07 -20.43100 57.68506 197 ft 142 kts 117°
2026-05-07 23:07 -20.43662 57.69677 378 ft 194 kts 116°
2026-05-07 23:08 -20.44249 57.70920 1634 ft 178 kts 114°
2026-05-07 23:08 -20.44802 57.72107 2532 ft 189 kts 115°
2026-05-07 23:08 -20.45587 57.73325 2660 ft 212 kts 139°
2026-05-07 23:08 -20.47006 57.73959 2900 ft 236 kts 172°
2026-05-07 23:09 -20.48682 57.73661 3195 ft 261 kts 205°
2026-05-07 23:09 -20.50088 57.72364 3525 ft 277 kts 230°
2026-05-07 23:09 -20.51274 57.70720 4052 ft 283 kts 229°
2026-05-07 23:09 -20.52503 57.69077 4792 ft 283 kts 229°
2026-05-07 23:10 -20.53743 57.67432 5501 ft 286 kts 228°
2026-05-07 23:10 -20.54998 57.65773 6201 ft 288 kts 228°
2026-05-07 23:10 -20.56267 57.64103 6844 ft 291 kts 228°
2026-05-07 23:10 -20.57552 57.62416 7497 ft 293 kts 229°
2026-05-07 23:11 -20.58841 57.60726 8200 ft 294 kts 228°
2026-05-07 23:11 -20.60139 57.59030 8841 ft 296 kts 229°
2026-05-07 23:11 -20.61452 57.57317 9476 ft 299 kts 228°
2026-05-07 23:11 -20.62773 57.55591 10081 ft 301 kts 229°
2026-05-07 23:12 -20.63909 57.53738 10454 ft 311 kts 248°
2026-05-07 23:12 -20.64173 57.51395 10593 ft 331 kts 278°
2026-05-07 23:12 -20.63659 57.48942 10701 ft 348 kts 283°
2026-05-07 23:12 -20.63073 57.46366 10857 ft 367 kts 282°
2026-05-07 23:13 -20.62491 57.43638 11024 ft 386 kts 282°
2026-05-07 23:13 -20.61855 57.40825 11377 ft 391 kts 288°
2026-05-07 23:13 -20.60582 57.38228 11617 ft 398 kts 307°
2026-05-07 23:13 -20.58882 57.35861 12127 ft 404 kts 307°
2026-05-07 23:14 -20.57197 57.33432 12719 ft 408 kts 306°
2026-05-07 23:14 -20.55543 57.30957 13395 ft 411 kts 305°
2026-05-07 23:14 -20.53917 57.28486 13965 ft 415 kts 305°
2026-05-07 23:14 -20.52251 57.25948 14505 ft 418 kts 305°
2026-05-07 23:15 -20.50578 57.23402 15099 ft 420 kts 305°
2026-05-07 23:15 -20.48893 57.20844 15636 ft 423 kts 305°
2026-05-07 23:15 -20.47181 57.18271 16152 ft 427 kts 307°
2026-05-07 23:15 -20.45268 57.15839 16715 ft 428 kts 313°
2026-05-07 23:16 -20.43204 57.13535 17295 ft 431 kts 315°
2026-05-07 23:16 -20.41095 57.11234 17724 ft 436 kts 314°
2026-05-07 23:16 -20.38988 57.08893 18304 ft 439 kts 313°
2026-05-07 23:16 -20.36894 57.06506 18734 ft 442 kts 313°
2026-05-07 23:17 -20.34802 57.04094 19261 ft 443 kts 313°
2026-05-07 23:17 -20.32704 57.01670 19687 ft 447 kts 313°
2026-05-07 23:17 -20.30613 56.99260 20124 ft 449 kts 313°
2026-05-07 23:17 -20.28485 56.96812 20649 ft 450 kts 313°
2026-05-07 23:18 -20.26346 56.94355 21048 ft 453 kts 313°
2026-05-07 23:18 -20.24202 56.91892 21541 ft 454 kts 313°
2026-05-07 23:18 -20.22036 56.89406 21805 ft 462 kts 313°
2026-05-07 23:18 -20.19845 56.86890 22217 ft 463 kts 313°
2026-05-07 23:19 -20.17654 56.84375 22712 ft 464 kts 313°
2026-05-07 23:19 -20.15447 56.81842 23088 ft 467 kts 313°
2026-05-07 23:19 -20.13221 56.79290 23446 ft 470 kts 313°
2026-05-07 23:19 -20.11017 56.76763 23747 ft 474 kts 313°
2026-05-07 23:20 -20.08774 56.74192 24087 ft 474 kts 313°
2026-05-07 23:20 -20.06519 56.71609 24393 ft 476 kts 313°
2026-05-07 23:20 -20.04261 56.69022 24719 ft 477 kts 313°
2026-05-07 23:20 -20.01988 56.66421 25077 ft 478 kts 313°
2026-05-07 23:21 -19.99714 56.63820 25378 ft 480 kts 313°
2026-05-07 23:21 -19.97462 56.61244 25699 ft 481 kts 313°
2026-05-07 23:21 -19.95172 56.58627 25949 ft 485 kts 313°
2026-05-07 23:21 -19.92863 56.55989 26242 ft 486 kts 313°
2026-05-07 23:22 -19.90546 56.53343 26533 ft 488 kts 313°
2026-05-07 23:22 -19.88230 56.50699 26834 ft 489 kts 313°
2026-05-07 23:22 -19.85938 56.48084 27117 ft 491 kts 313°
2026-05-07 23:22 -19.83600 56.45417 27350 ft 494 kts 313°
2026-05-07 23:23 -19.81255 56.42746 27629 ft 495 kts 312°
2026-05-07 23:23 -19.78898 56.40060 27879 ft 497 kts 313°
2026-05-07 23:23 -19.76535 56.37370 28148 ft 499 kts 312°
2026-05-07 23:23 -19.74158 56.34664 28370 ft 501 kts 312°
2026-05-07 23:24 -19.71777 56.31954 28636 ft 502 kts 312°
2026-05-07 23:24 -19.69390 56.29240 28908 ft 503 kts 313°
2026-05-07 23:24 -19.66999 56.26523 29145 ft 504 kts 312°
2026-05-07 23:24 -19.64603 56.23800 29366 ft 506 kts 312°
2026-05-07 23:25 -19.62197 56.21069 29542 ft 507 kts 312°
2026-05-07 23:25 -19.59816 56.18366 29741 ft 509 kts 312°
2026-05-07 23:25 -19.57396 56.15621 29948 ft 510 kts 312°
2026-05-07 23:25 -19.54965 56.12864 30236 ft 508 kts 312°
2026-05-07 23:26 -19.52553 56.10131 30521 ft 507 kts 312°
2026-05-07 23:26 -19.50150 56.07409 30814 ft 505 kts 312°
2026-05-07 23:26 -19.47742 56.04682 31028 ft 505 kts 312°
2026-05-07 23:26 -19.45338 56.01960 31215 ft 506 kts 312°
2026-05-07 23:27 -19.40565 55.96562 31717 ft 504 kts 311°
2026-05-07 23:27 -19.38169 55.93853 31972 ft 503 kts 312°
2026-05-07 23:27 -19.35772 55.91145 32002 ft 505 kts 312°
2026-05-07 23:28 -19.30977 55.85731 32052 ft 502 kts 312°
2026-05-07 23:28 -19.26200 55.80344 32053 ft 500 kts 311°
2026-05-07 23:29 -19.21434 55.74973 32057 ft 499 kts 312°
2026-05-07 23:29 -19.16713 55.69657 32047 ft 499 kts 312°
2026-05-07 23:30 -19.11922 55.64268 32051 ft 500 kts 312°
2026-05-07 23:30 -19.07177 55.58931 32051 ft 501 kts 312°
2026-05-07 23:31 -19.02439 55.53513 32053 ft 501 kts 308°
2026-05-07 23:31 -18.98353 55.47602 32057 ft 501 kts 303°
2026-05-07 23:32 -18.94475 55.41472 32052 ft 502 kts 302°
2026-05-07 23:32 -18.90520 55.35388 32046 ft 502 kts 304°
2026-05-07 23:33 -18.86494 55.29359 32044 ft 502 kts 304°
2026-05-07 23:33 -18.82450 55.23348 32044 ft 501 kts 304°
2026-05-07 23:34 -18.78443 55.17389 32043 ft 500 kts 304°
2026-05-07 23:34 -18.74422 55.11407 32041 ft 499 kts 304°
2026-05-07 23:35 -18.70402 55.05428 32040 ft 499 kts 304°
2026-05-07 23:35 -18.66380 54.99452 32044 ft 499 kts 304°
2026-05-07 23:36 -18.62382 54.93517 32043 ft 499 kts 304°
2026-05-07 23:36 -18.58346 54.87533 32040 ft 499 kts 304°
2026-05-07 23:37 -18.54314 54.81560 32039 ft 499 kts 304°
2026-05-07 23:37 -18.50307 54.75627 32037 ft 499 kts 304°
2026-05-07 23:38 -18.46276 54.69666 32035 ft 498 kts 304°
2026-05-07 23:38 -18.42248 54.63710 32036 ft 498 kts 304°
2026-05-07 23:39 -18.38220 54.57757 32033 ft 498 kts 304°
2026-05-07 23:39 -18.34229 54.51863 32031 ft 498 kts 304°
2026-05-07 23:40 -18.30205 54.45927 32028 ft 498 kts 304°
2026-05-07 23:40 -18.26179 54.39993 32025 ft 498 kts 304°
2026-05-07 23:41 -18.22157 54.34070 32026 ft 498 kts 304°
2026-05-07 23:41 -18.18132 54.28147 32026 ft 497 kts 304°
2026-05-07 23:42 -18.14104 54.22225 32022 ft 497 kts 304°
2026-05-07 23:42 -18.10095 54.16337 32027 ft 497 kts 304°
2026-05-07 23:43 -18.06066 54.10433 32022 ft 497 kts 305°
2026-05-07 23:43 -18.02035 54.04537 32025 ft 497 kts 305°
2026-05-07 23:44 -17.98018 53.98667 32023 ft 497 kts 304°
2026-05-07 23:44 -17.94659 53.93758 32025 ft 496 kts 305°
2026-05-07 23:45 -17.90626 53.87871 32027 ft 495 kts 304°
2026-05-07 23:45 -17.86602 53.82002 32015 ft 495 kts 304°
2026-05-07 23:46 -17.82583 53.76146 32018 ft 494 kts 305°
2026-05-07 23:46 -17.78554 53.70278 32021 ft 494 kts 304°
2026-05-07 23:47 -17.74530 53.64424 32016 ft 495 kts 304°
2026-05-07 23:47 -17.70499 53.58566 32014 ft 495 kts 305°
2026-05-07 23:48 -17.66489 53.52743 32025 ft 496 kts 304°
2026-05-07 23:48 -17.62449 53.46882 32017 ft 496 kts 305°
2026-05-07 23:49 -17.58402 53.41014 32019 ft 495 kts 304°
2026-05-07 23:49 -17.54363 53.35164 32014 ft 494 kts 304°
2026-05-07 23:50 -17.50332 53.29332 32007 ft 494 kts 304°
2026-05-07 23:50 -17.46325 53.23537 32012 ft 494 kts 304°
2026-05-07 23:51 -17.42291 53.17707 32004 ft 494 kts 305°
2026-05-07 23:51 -17.38250 53.11877 32018 ft 494 kts 304°
2026-05-07 23:52 -17.34203 53.06042 32012 ft 495 kts 304°
2026-05-07 23:52 -17.30151 53.00201 32002 ft 495 kts 305°
2026-05-07 23:53 -17.26131 52.94411 32007 ft 495 kts 305°
2026-05-07 23:53 -17.22089 52.88601 32007 ft 493 kts 304°
2026-05-07 23:54 -17.18052 52.82800 31992 ft 493 kts 304°
2026-05-07 23:54 -17.14016 52.77006 32006 ft 493 kts 304°
2026-05-07 23:55 -17.09977 52.71209 32004 ft 493 kts 305°
2026-05-07 23:55 -17.05949 52.65433 32004 ft 495 kts 305°
2026-05-07 23:56 -17.01885 52.59612 32007 ft 496 kts 305°
2026-05-07 23:56 -16.97821 52.53794 32003 ft 496 kts 305°
2026-05-07 23:57 -16.93748 52.47969 32005 ft 495 kts 304°
2026-05-07 23:57 -16.89682 52.42158 31999 ft 494 kts 304°
2026-05-07 23:58 -16.85653 52.36405 31999 ft 493 kts 305°
2026-05-07 23:58 -16.81588 52.30610 32006 ft 493 kts 305°
2026-05-07 23:59 -16.77534 52.24831 31995 ft 493 kts 305°
2026-05-07 23:59 -16.73476 52.19049 31997 ft 494 kts 305°
2026-05-08 00:00 -16.69427 52.13287 32009 ft 495 kts 305°
2026-05-08 00:00 -16.65353 52.07491 31998 ft 495 kts 305°
2026-05-08 00:01 -16.61275 52.01696 31998 ft 495 kts 304°
2026-05-08 00:01 -16.57203 51.95913 31990 ft 493 kts 304°
2026-05-08 00:02 -16.53140 51.90146 31992 ft 492 kts 305°
2026-05-08 00:02 -16.49109 51.84431 31994 ft 492 kts 304°
2026-05-08 00:03 -16.45044 51.78674 31983 ft 493 kts 305°
2026-05-08 00:03 -16.40972 51.72908 31988 ft 494 kts 305°
2026-05-08 00:04 -16.36896 51.67141 31998 ft 494 kts 305°
2026-05-08 00:04 -16.32840 51.61409 31985 ft 494 kts 305°
2026-05-08 00:05 -16.28752 51.55636 31983 ft 494 kts 305°
2026-05-08 00:05 -16.24692 51.49909 31991 ft 493 kts 304°
2026-05-08 00:06 -16.20621 51.44169 31984 ft 493 kts 305°
2026-05-08 00:06 -16.16549 51.38430 31990 ft 493 kts 305°
2026-05-08 00:07 -16.12471 51.32691 31994 ft 493 kts 305°
2026-05-08 00:07 -16.08384 51.26941 31994 ft 494 kts 305°
2026-05-08 00:08 -16.04288 51.21185 31994 ft 495 kts 305°
2026-05-08 00:08 -16.00187 51.15426 31995 ft 495 kts 305°
2026-05-08 00:09 -15.96111 51.09706 31992 ft 494 kts 305°
2026-05-08 00:09 -15.92019 51.03968 31983 ft 494 kts 305°
2026-05-08 00:10 -15.87927 50.98234 31988 ft 493 kts 305°
2026-05-08 00:10 -15.83860 50.92540 31990 ft 493 kts 305°
2026-05-08 00:11 -15.79764 50.86809 31994 ft 494 kts 305°
2026-05-08 00:11 -15.75661 50.81073 31991 ft 495 kts 306°
2026-05-08 00:12 -15.71546 50.75325 32000 ft 496 kts 305°
2026-05-08 00:12 -15.67447 50.69605 31991 ft 496 kts 305°
2026-05-08 00:13 -15.63321 50.63851 31986 ft 496 kts 306°
2026-05-08 00:13 -15.59198 50.58105 31996 ft 495 kts 306°
2026-05-08 00:14 -15.55107 50.52409 32000 ft 495 kts 306°
2026-05-08 00:14 -15.50991 50.46682 31994 ft 494 kts 306°
2026-05-08 00:15 -15.46881 50.40966 32013 ft 494 kts 306°
2026-05-08 00:15 -15.42763 50.35244 32013 ft 495 kts 306°
2026-05-08 00:16 -15.38639 50.29519 32015 ft 495 kts 306°
2026-05-08 00:16 -15.34544 50.23838 32028 ft 496 kts 306°
2026-05-08 00:17 -15.30415 50.18114 32023 ft 496 kts 306°
2026-05-08 00:17 -15.26287 50.12396 32029 ft 495 kts 306°
2026-05-08 00:18 -15.22166 50.06692 32024 ft 494 kts 306°
2026-05-08 00:18 -15.18053 50.01002 32025 ft 493 kts 306°
2026-05-08 00:19 -15.13942 49.95317 32031 ft 493 kts 306°
2026-05-08 00:19 -15.09824 49.89630 32033 ft 494 kts 306°
2026-05-08 00:20 -15.05720 49.83965 32043 ft 495 kts 306°
2026-05-08 00:20 -15.01575 49.78247 32045 ft 497 kts 306°
2026-05-08 00:21 -14.97417 49.72519 32045 ft 498 kts 306°
2026-05-08 00:21 -14.93254 49.66789 32050 ft 498 kts 306°
2026-05-08 00:22 -14.89122 49.61103 32055 ft 498 kts 306°
2026-05-08 00:22 -14.84962 49.55382 32061 ft 497 kts 306°
2026-05-08 00:23 -14.80806 49.49671 32063 ft 496 kts 306°
2026-05-08 00:23 -14.76654 49.43968 32067 ft 496 kts 306°
2026-05-08 00:24 -14.72530 49.38308 32070 ft 496 kts 306°
2026-05-08 00:24 -14.68378 49.32613 32077 ft 496 kts 306°
2026-05-08 00:25 -14.64229 49.26929 32068 ft 495 kts 306°
2026-05-08 00:25 -14.60078 49.21245 32087 ft 495 kts 306°
2026-05-08 00:26 -14.55945 49.15588 32079 ft 496 kts 306°
2026-05-08 00:26 -14.51787 49.09902 32080 ft 496 kts 306°
2026-05-08 00:27 -14.47619 49.04207 32078 ft 497 kts 306°
2026-05-08 00:27 -14.43446 48.98509 32072 ft 497 kts 306°
2026-05-08 00:28 -14.39274 48.92816 32080 ft 497 kts 306°
2026-05-08 00:28 -14.35130 48.87165 32073 ft 497 kts 306°
2026-05-08 00:29 -14.30959 48.81480 32063 ft 497 kts 306°
2026-05-08 00:29 -14.26773 48.75779 32060 ft 497 kts 306°
2026-05-08 00:30 -14.22597 48.70098 32050 ft 496 kts 305°
2026-05-08 00:30 -14.18452 48.64462 32026 ft 496 kts 306°
2026-05-08 00:31 -14.14277 48.58788 32018 ft 497 kts 306°
2026-05-08 00:31 -14.10093 48.53105 32007 ft 498 kts 306°
2026-05-08 00:32 -14.06610 48.48378 32004 ft 499 kts 306°
2026-05-08 00:32 -14.01715 48.41741 31994 ft 500 kts 306°
2026-05-08 00:33 -13.98216 48.36998 31975 ft 500 kts 306°
2026-05-08 00:33 -13.93990 48.31273 31966 ft 501 kts 306°
2026-05-08 00:34 -13.89768 48.25558 31965 ft 501 kts 306°
2026-05-08 00:34 -13.85543 48.19843 31956 ft 501 kts 306°
2026-05-08 00:35 -13.81320 48.14134 31957 ft 501 kts 306°
2026-05-08 00:35 -13.77116 48.08455 31952 ft 501 kts 306°
2026-05-08 00:36 -13.72890 48.02747 31949 ft 501 kts 306°
2026-05-08 00:36 -13.68662 47.97047 31946 ft 501 kts 307°
2026-05-08 00:37 -13.64427 47.91346 31942 ft 501 kts 307°
2026-05-08 00:38 -13.58097 47.82826 31943 ft 501 kts 307°
2026-05-08 00:38 -13.53857 47.77123 31940 ft 501 kts 307°
2026-05-08 00:39 -13.49648 47.71465 31943 ft 501 kts 307°
2026-05-08 00:39 -13.45406 47.65767 31942 ft 501 kts 307°
2026-05-08 00:40 -13.41172 47.60083 31944 ft 501 kts 307°
2026-05-08 00:40 -13.36921 47.54381 31942 ft 501 kts 307°
2026-05-08 00:41 -13.32708 47.48732 31943 ft 501 kts 307°
2026-05-08 00:41 -13.28454 47.43032 31942 ft 501 kts 307°
2026-05-08 00:42 -13.24203 47.37341 31938 ft 502 kts 307°
2026-05-08 00:42 -13.19982 47.31692 31943 ft 502 kts 307°
2026-05-08 00:43 -13.15724 47.25999 31948 ft 503 kts 307°
2026-05-08 00:43 -13.11461 47.20301 31945 ft 503 kts 307°
2026-05-08 00:44 -13.07192 47.14601 31943 ft 504 kts 307°
2026-05-08 00:44 -13.02920 47.08898 31943 ft 504 kts 307°
2026-05-08 00:45 -12.98647 47.03199 31944 ft 504 kts 307°
2026-05-08 00:45 -12.94370 46.97497 31947 ft 504 kts 307°
2026-05-08 00:46 -12.90089 46.91796 31947 ft 504 kts 307°
2026-05-08 00:46 -12.85807 46.86094 31943 ft 505 kts 307°
2026-05-08 00:47 -12.81516 46.80385 31947 ft 505 kts 306°
2026-05-08 00:47 -12.77224 46.74678 31945 ft 506 kts 306°
2026-05-08 00:48 -12.72951 46.69000 31951 ft 506 kts 307°
2026-05-08 00:48 -12.68649 46.63287 31947 ft 506 kts 307°
2026-05-08 00:49 -12.64336 46.57563 31944 ft 506 kts 307°
2026-05-08 00:49 -12.60055 46.51885 31946 ft 506 kts 307°
2026-05-08 00:50 -12.55752 46.46182 31946 ft 506 kts 306°
2026-05-08 00:50 -12.51446 46.40477 31943 ft 506 kts 306°
2026-05-08 00:51 -12.47138 46.34772 31947 ft 507 kts 307°
2026-05-08 00:51 -12.42819 46.29058 31945 ft 508 kts 306°
2026-05-08 00:52 -12.38491 46.23333 31947 ft 509 kts 307°
2026-05-08 00:52 -12.34152 46.17598 31946 ft 509 kts 307°
2026-05-08 00:53 -12.29816 46.11871 31945 ft 509 kts 307°
2026-05-08 00:53 -12.25496 46.06175 31943 ft 508 kts 307°
2026-05-08 00:54 -12.21170 46.00475 31939 ft 507 kts 307°
2026-05-08 00:54 -12.16845 45.94775 31940 ft 506 kts 307°
2026-05-08 00:55 -12.12544 45.89110 31941 ft 506 kts 307°
2026-05-08 00:55 -12.08215 45.83412 31943 ft 506 kts 307°
2026-05-08 00:56 -12.03890 45.77721 31941 ft 507 kts 307°
2026-05-08 00:56 -11.99560 45.72028 31941 ft 507 kts 307°
2026-05-08 00:57 -11.95244 45.66357 31946 ft 508 kts 307°
2026-05-08 00:57 -11.90901 45.60654 31944 ft 508 kts 307°
2026-05-08 00:58 -11.86554 45.54949 31944 ft 508 kts 307°
2026-05-08 00:58 -11.82239 45.49289 31944 ft 508 kts 307°
2026-05-08 00:59 -11.77893 45.43592 31940 ft 508 kts 306°
2026-05-08 00:59 -11.73541 45.37887 31956 ft 510 kts 307°
2026-05-08 01:00 -11.69179 45.32176 31946 ft 511 kts 306°
2026-05-08 01:00 -11.64802 45.26448 31950 ft 512 kts 306°
2026-05-08 01:01 -11.60431 45.20731 31953 ft 513 kts 306°
2026-05-08 01:01 -11.56060 45.15016 31952 ft 512 kts 307°
2026-05-08 01:02 -11.51677 45.09291 31942 ft 511 kts 307°
2026-05-08 01:02 -11.47304 45.03581 31952 ft 510 kts 307°
2026-05-08 01:03 -11.42944 44.97892 31944 ft 509 kts 307°
2026-05-08 01:03 -11.38592 44.92215 31947 ft 508 kts 306°
2026-05-08 01:04 -11.34232 44.86529 31954 ft 508 kts 307°
2026-05-08 01:04 -11.29871 44.80848 31944 ft 509 kts 306°
2026-05-08 01:05 -11.25528 44.75194 31954 ft 510 kts 307°
2026-05-08 01:05 -11.21131 44.69473 31943 ft 512 kts 306°
2026-05-08 01:06 -11.16732 44.63749 31949 ft 513 kts 307°
2026-05-08 01:06 -11.12326 44.58024 31950 ft 513 kts 307°
2026-05-08 01:07 -11.07948 44.52334 31940 ft 512 kts 307°
2026-05-08 01:07 -11.03559 44.46635 31944 ft 510 kts 307°
2026-05-08 01:08 -10.99185 44.40958 31937 ft 509 kts 307°
2026-05-08 01:08 -10.94855 44.35335 31945 ft 507 kts 307°
2026-05-08 01:09 -10.90497 44.29686 31941 ft 507 kts 306°
2026-05-08 01:09 -10.86132 44.24029 31942 ft 507 kts 306°
2026-05-08 01:10 -10.81777 44.18380 31947 ft 507 kts 307°
2026-05-08 01:10 -10.77417 44.12727 31946 ft 508 kts 306°
2026-05-08 01:11 -10.73055 44.07078 31942 ft 508 kts 306°
2026-05-08 01:11 -10.68688 44.01422 31946 ft 507 kts 307°
2026-05-08 01:12 -10.64357 43.95818 31941 ft 507 kts 307°
2026-05-08 01:12 -10.60000 43.90183 31943 ft 506 kts 306°
2026-05-08 01:13 -10.55641 43.84547 31945 ft 506 kts 307°
2026-05-08 01:13 -10.51288 43.78922 31945 ft 506 kts 307°
2026-05-08 01:14 -10.46936 43.73301 31936 ft 506 kts 306°
2026-05-08 01:14 -10.42584 43.67683 31943 ft 505 kts 306°
2026-05-08 01:15 -10.38258 43.62101 31946 ft 505 kts 307°
2026-05-08 01:15 -10.33907 43.56494 31943 ft 505 kts 307°
2026-05-08 01:16 -10.29562 43.50895 31944 ft 504 kts 307°
2026-05-08 01:16 -10.25212 43.45291 31941 ft 504 kts 307°
2026-05-08 01:17 -10.20869 43.39699 31944 ft 504 kts 307°
2026-05-08 01:17 -10.16528 43.34112 31941 ft 504 kts 306°
2026-05-08 01:18 -10.12213 43.28558 31942 ft 504 kts 307°
2026-05-08 01:18 -10.07858 43.22961 31943 ft 505 kts 307°
2026-05-08 01:19 -10.03500 43.17359 31950 ft 505 kts 307°
2026-05-08 01:19 -9.99145 43.11764 31946 ft 505 kts 307°
2026-05-08 01:20 -9.95522 43.07113 31944 ft 505 kts 307°
2026-05-08 01:20 -9.91161 43.01515 31946 ft 505 kts 307°
2026-05-08 01:21 -9.86091 42.95011 31945 ft 505 kts 307°
2026-05-08 01:21 -9.82465 42.90362 31945 ft 505 kts 307°
2026-05-08 01:22 -9.78101 42.84769 31946 ft 505 kts 307°
2026-05-08 01:22 -9.73738 42.79178 31946 ft 505 kts 307°
2026-05-08 01:23 -9.69380 42.73598 31941 ft 505 kts 307°
2026-05-08 01:23 -9.65009 42.68005 31947 ft 506 kts 307°
2026-05-08 01:24 -9.60630 42.62403 31947 ft 507 kts 307°
2026-05-08 01:24 -9.56254 42.56806 31947 ft 507 kts 307°
2026-05-08 01:25 -9.51889 42.51229 31947 ft 506 kts 307°
2026-05-08 01:25 -9.47515 42.45640 31946 ft 506 kts 307°
2026-05-08 01:26 -9.43135 42.40047 31945 ft 506 kts 307°
2026-05-08 01:26 -9.38780 42.34489 31947 ft 506 kts 307°
2026-05-08 01:27 -9.34401 42.28904 31944 ft 506 kts 307°
2026-05-08 01:27 -9.30025 42.23322 31949 ft 506 kts 307°
2026-05-08 01:28 -9.25644 42.17739 31949 ft 506 kts 307°
2026-05-08 01:28 -9.21261 42.12155 31944 ft 507 kts 307°
2026-05-08 01:29 -9.16877 42.06571 31950 ft 507 kts 307°
2026-05-08 01:29 -9.12487 42.00984 31947 ft 507 kts 307°
2026-05-08 01:30 -9.08131 41.95439 31951 ft 506 kts 307°
2026-05-08 01:30 -9.03743 41.89859 31948 ft 506 kts 307°
2026-05-08 01:31 -8.99366 41.84296 31945 ft 505 kts 307°
2026-05-08 01:31 -8.94988 41.78733 31945 ft 505 kts 307°
2026-05-08 01:32 -8.90604 41.73163 31948 ft 505 kts 307°
2026-05-08 01:32 -8.86259 41.67645 31942 ft 505 kts 307°
2026-05-08 01:33 -8.81884 41.62094 31948 ft 504 kts 307°
2026-05-08 01:33 -8.77510 41.56545 31944 ft 504 kts 307°
2026-05-08 01:34 -8.73137 41.50996 31942 ft 504 kts 307°
2026-05-08 01:34 -8.68742 41.45475 31942 ft 504 kts 307°
2026-05-08 01:35 -8.64299 41.39990 31943 ft 504 kts 308°
2026-05-08 01:35 -8.59876 41.34536 31942 ft 504 kts 308°
2026-05-08 01:36 -8.55439 41.29051 31947 ft 504 kts 308°
2026-05-08 01:36 -8.50993 41.23549 31942 ft 504 kts 308°
2026-05-08 01:37 -8.46550 41.18050 31942 ft 504 kts 308°
2026-05-08 01:37 -8.42113 41.12566 31940 ft 504 kts 308°
2026-05-08 01:38 -8.37707 41.07122 31935 ft 504 kts 308°
2026-05-08 01:38 -8.33274 41.01645 31939 ft 503 kts 308°
2026-05-08 01:39 -8.28836 40.96165 31941 ft 503 kts 308°
2026-05-08 01:39 -8.24399 40.90688 31943 ft 503 kts 308°
2026-05-08 01:40 -8.19993 40.85251 31943 ft 503 kts 308°
2026-05-08 01:40 -8.15626 40.79721 31942 ft 503 kts 306°
2026-05-08 01:41 -8.11380 40.74104 31940 ft 503 kts 306°
2026-05-08 01:41 -8.07133 40.68498 31940 ft 503 kts 306°
2026-05-08 01:42 -8.02884 40.62933 31943 ft 503 kts 306°
2026-05-08 01:42 -7.98602 40.57335 31944 ft 503 kts 306°
2026-05-08 01:43 -7.94323 40.51740 31937 ft 504 kts 306°
2026-05-08 01:43 -7.89998 40.46176 31941 ft 504 kts 307°
2026-05-08 01:44 -7.85593 40.40659 31943 ft 504 kts 307°
2026-05-08 01:44 -7.81190 40.35152 31942 ft 504 kts 308°
2026-05-08 01:45 -7.76828 40.29672 31943 ft 504 kts 308°
2026-05-08 01:45 -7.72440 40.24151 31941 ft 504 kts 308°
2026-05-08 01:46 -7.68051 40.18631 31940 ft 505 kts 308°
2026-05-08 01:46 -7.63653 40.13101 31943 ft 505 kts 307°
2026-05-08 01:47 -7.59253 40.07572 31946 ft 505 kts 308°
2026-05-08 01:47 -7.54878 40.02077 31935 ft 506 kts 308°
2026-05-08 01:48 -7.48248 39.93753 31941 ft 507 kts 308°
2026-05-08 01:48 -7.43854 39.88238 31942 ft 508 kts 308°
2026-05-08 01:49 -7.39421 39.82677 31937 ft 508 kts 308°
2026-05-08 01:49 -7.35014 39.77150 31941 ft 508 kts 308°
2026-05-08 01:50 -7.30591 39.71605 31939 ft 507 kts 308°
2026-05-08 01:50 -7.26168 39.66062 31941 ft 507 kts 309°
2026-05-08 01:51 -7.21744 39.60520 31942 ft 507 kts 308°
2026-05-08 01:51 -7.17320 39.54979 31951 ft 507 kts 309°
2026-05-08 01:52 -7.12917 39.49466 31942 ft 507 kts 309°
2026-05-08 01:52 -7.08490 39.43926 31945 ft 508 kts 309°
2026-05-08 01:53 -7.04062 39.38386 31949 ft 508 kts 309°
2026-05-08 01:53 -6.99629 39.32841 31967 ft 508 kts 309°
2026-05-08 01:54 -6.95223 39.27331 31966 ft 508 kts 309°
2026-05-08 01:54 -6.90797 39.21798 31966 ft 507 kts 309°
2026-05-08 01:55 -6.86105 39.16513 31968 ft 505 kts 316°
2026-05-08 01:55 -6.81046 39.11601 31969 ft 505 kts 316°
2026-05-08 01:56 -6.75983 39.06690 31962 ft 506 kts 316°
2026-05-08 01:56 -6.70932 39.01744 31962 ft 506 kts 316°
2026-05-08 01:57 -6.65927 38.96822 31958 ft 506 kts 316°
2026-05-08 01:57 -6.60886 38.91865 31954 ft 507 kts 316°
2026-05-08 01:58 -6.55829 38.86896 31954 ft 507 kts 316°
2026-05-08 01:58 -6.50773 38.81933 31953 ft 507 kts 316°
2026-05-08 01:59 -6.45720 38.76972 31957 ft 508 kts 316°
2026-05-08 01:59 -6.40700 38.72047 31960 ft 508 kts 316°
2026-05-08 02:00 -6.35644 38.67086 31961 ft 508 kts 316°
2026-05-08 02:00 -6.30576 38.62115 31964 ft 508 kts 316°
2026-05-08 02:01 -6.25514 38.57151 31963 ft 508 kts 316°
2026-05-08 02:01 -6.20445 38.52180 31962 ft 508 kts 316°
2026-05-08 02:02 -6.15414 38.47248 31966 ft 508 kts 316°
2026-05-08 02:02 -6.10350 38.42268 31967 ft 508 kts 316°
2026-05-08 02:03 -6.05299 38.37294 31973 ft 508 kts 316°
2026-05-08 02:03 -6.00284 38.32359 31972 ft 508 kts 316°
2026-05-08 02:04 -5.95235 38.27393 31982 ft 508 kts 316°
2026-05-08 02:04 -5.90188 38.22430 31979 ft 507 kts 316°
2026-05-08 02:05 -5.85145 38.17473 31984 ft 507 kts 316°
2026-05-08 02:05 -5.80099 38.12514 31983 ft 507 kts 316°
2026-05-08 02:06 -5.75077 38.07579 31989 ft 507 kts 316°
2026-05-08 02:06 -5.70025 38.02616 31989 ft 507 kts 316°
2026-05-08 02:07 -5.64988 37.97650 31995 ft 507 kts 316°
2026-05-08 02:07 -5.59970 37.92679 31996 ft 507 kts 316°
2026-05-08 02:08 -5.54979 37.87734 32000 ft 507 kts 316°
2026-05-08 02:08 -5.49957 37.82764 32002 ft 506 kts 316°
2026-05-08 02:09 -5.44933 37.77794 32006 ft 506 kts 316°
2026-05-08 02:09 -5.40757 37.73664 32006 ft 506 kts 316°
2026-05-08 02:10 -5.34924 37.67898 32011 ft 506 kts 316°
2026-05-08 02:10 -5.30722 37.63745 32011 ft 506 kts 316°
2026-05-08 02:11 -5.25707 37.58789 32013 ft 506 kts 316°
2026-05-08 02:11 -5.20691 37.53833 32014 ft 506 kts 316°
2026-05-08 02:12 -5.15703 37.48906 32019 ft 506 kts 316°
2026-05-08 02:12 -5.10684 37.43950 32020 ft 506 kts 316°
2026-05-08 02:13 -5.05667 37.38997 32020 ft 506 kts 316°
2026-05-08 02:13 -5.00653 37.34047 32022 ft 506 kts 316°
2026-05-08 02:14 -4.95638 37.29098 32025 ft 505 kts 316°
2026-05-08 02:14 -4.90625 37.24152 32024 ft 505 kts 316°
2026-05-08 02:15 -4.85640 37.19234 32027 ft 505 kts 316°
2026-05-08 02:15 -4.80621 37.14284 32028 ft 505 kts 316°
2026-05-08 02:16 -4.75605 37.09338 32032 ft 505 kts 316°
2026-05-08 02:16 -4.70623 37.04427 32033 ft 504 kts 316°
2026-05-08 02:17 -4.65614 36.99490 32031 ft 504 kts 316°
2026-05-08 02:17 -4.60607 36.94556 32036 ft 504 kts 316°
2026-05-08 02:18 -4.55596 36.89618 32038 ft 505 kts 315°
2026-05-08 02:18 -4.50620 36.84716 32040 ft 504 kts 315°
2026-05-08 02:19 -4.45622 36.79780 32041 ft 504 kts 315°
2026-05-08 02:19 -4.40615 36.74822 32040 ft 504 kts 315°
2026-05-08 02:20 -4.35659 36.69914 32043 ft 504 kts 315°
2026-05-08 02:20 -4.30670 36.64976 32044 ft 504 kts 315°
2026-05-08 02:21 -4.25676 36.60036 32049 ft 504 kts 315°
2026-05-08 02:21 -4.20687 36.55102 32045 ft 503 kts 315°
2026-05-08 02:22 -4.15730 36.50199 32049 ft 503 kts 315°
2026-05-08 02:22 -4.10748 36.45273 32048 ft 503 kts 315°
2026-05-08 02:23 -4.05763 36.40344 32046 ft 503 kts 315°
2026-05-08 02:23 -4.00787 36.35424 32049 ft 503 kts 315°
2026-05-08 02:24 -3.95807 36.30502 32048 ft 503 kts 315°
2026-05-08 02:24 -3.90710 36.25711 32049 ft 502 kts 318°
2026-05-08 02:25 -3.85467 36.21088 32046 ft 502 kts 318°
2026-05-08 02:25 -3.80268 36.16458 32048 ft 502 kts 318°
2026-05-08 02:26 -3.75080 36.11783 32049 ft 502 kts 318°
2026-05-08 02:26 -3.69887 36.07100 32053 ft 502 kts 317°
2026-05-08 02:27 -3.64759 36.02355 32048 ft 502 kts 315°
2026-05-08 02:27 -3.59808 35.97420 32050 ft 502 kts 315°
2026-05-08 02:28 -3.54846 35.92549 32056 ft 502 kts 315°
2026-05-08 02:28 -3.49824 35.87683 32057 ft 502 kts 316°
2026-05-08 02:29 -3.44799 35.82821 32073 ft 502 kts 315°
2026-05-08 02:29 -3.39773 35.77952 32070 ft 502 kts 315°
2026-05-08 02:30 -3.34748 35.73080 32070 ft 502 kts 316°
2026-05-08 02:30 -3.29755 35.68239 32085 ft 502 kts 315°
2026-05-08 02:31 -3.24733 35.63372 32085 ft 502 kts 316°
2026-05-08 02:31 -3.19710 35.58505 32086 ft 502 kts 316°
2026-05-08 02:32 -3.14683 35.53633 32078 ft 502 kts 315°
2026-05-08 02:32 -3.09655 35.48762 32092 ft 502 kts 316°
2026-05-08 02:33 -3.04635 35.43898 32080 ft 502 kts 316°
2026-05-08 02:33 -2.99645 35.39061 32082 ft 502 kts 316°
2026-05-08 02:34 -2.94629 35.34188 32082 ft 503 kts 316°
2026-05-08 02:34 -2.89604 35.29305 32082 ft 503 kts 315°
2026-05-08 02:35 -2.84575 35.24419 32080 ft 503 kts 316°
2026-05-08 02:35 -2.79588 35.19575 32078 ft 503 kts 316°
2026-05-08 02:36 -2.74573 35.14705 32076 ft 503 kts 316°
2026-05-08 02:36 -2.69546 35.09824 32074 ft 503 kts 316°
2026-05-08 02:37 -2.64526 35.04950 32076 ft 503 kts 316°
2026-05-08 02:37 -2.59504 35.00075 32068 ft 503 kts 316°
2026-05-08 02:38 -2.54483 34.95201 32071 ft 503 kts 316°
2026-05-08 02:38 -2.49453 34.90319 32062 ft 503 kts 316°
2026-05-08 02:39 -2.44428 34.85443 32066 ft 503 kts 316°
2026-05-08 02:39 -2.39433 34.80596 32062 ft 503 kts 316°
2026-05-08 02:40 -2.34407 34.75719 32061 ft 503 kts 315°
2026-05-08 02:40 -2.29381 34.70843 32057 ft 503 kts 316°
2026-05-08 02:41 -2.24360 34.65972 32051 ft 503 kts 316°
2026-05-08 02:41 -2.19338 34.61101 32049 ft 503 kts 315°
2026-05-08 02:42 -2.14345 34.56257 32051 ft 502 kts 316°
2026-05-08 02:42 -2.09318 34.51382 32044 ft 502 kts 315°
2026-05-08 02:43 -2.04301 34.46515 32042 ft 502 kts 316°
2026-05-08 02:43 -1.99284 34.41656 32039 ft 502 kts 316°
2026-05-08 02:44 -1.94248 34.36804 32039 ft 502 kts 316°
2026-05-08 02:44 -1.89236 34.31974 32038 ft 502 kts 316°
2026-05-08 02:45 -1.84208 34.27124 32033 ft 503 kts 316°
2026-05-08 02:45 -1.79180 34.22271 32032 ft 503 kts 316°
2026-05-08 02:46 -1.74149 34.17394 32027 ft 503 kts 316°
2026-05-08 02:46 -1.69128 34.12523 32028 ft 503 kts 316°
2026-05-08 02:47 -1.64124 34.07672 32028 ft 503 kts 316°
2026-05-08 02:47 -1.59098 34.02801 32042 ft 503 kts 316°
2026-05-08 02:48 -1.54042 33.97926 32055 ft 503 kts 316°
2026-05-08 02:48 -1.48989 33.93066 32066 ft 503 kts 316°
2026-05-08 02:49 -1.43953 33.88217 32071 ft 503 kts 316°
2026-05-08 02:49 -1.38956 33.83383 31984 ft 502 kts 316°
2026-05-08 02:50 -1.33946 33.78514 31981 ft 502 kts 316°
2026-05-08 02:50 -1.28937 33.73657 31982 ft 501 kts 316°
2026-05-08 02:51 -1.23927 33.68804 31970 ft 501 kts 316°
2026-05-08 02:51 -1.18920 33.63952 31966 ft 501 kts 316°
2026-05-08 02:52 -1.13914 33.59099 31955 ft 501 kts 316°
2026-05-08 02:52 -1.08945 33.54282 31951 ft 501 kts 316°
2026-05-08 02:53 -1.03940 33.49431 31952 ft 501 kts 316°
2026-05-08 02:53 -0.98940 33.44586 31947 ft 501 kts 316°
2026-05-08 02:54 -0.93924 33.39747 31934 ft 501 kts 316°
2026-05-08 02:54 -0.88888 33.34892 31947 ft 503 kts 316°
2026-05-08 02:55 -0.81342 33.27609 31949 ft 506 kts 316°
2026-05-08 02:56 -0.76268 33.22711 31944 ft 508 kts 316°
2026-05-08 02:56 -0.71170 33.17791 31943 ft 508 kts 316°
2026-05-08 02:57 -0.66080 33.12871 31946 ft 508 kts 316°
2026-05-08 02:57 -0.61012 33.07967 31946 ft 506 kts 316°
2026-05-08 02:58 -0.55994 33.03110 31934 ft 505 kts 316°
2026-05-08 02:58 -0.50948 32.98228 31938 ft 504 kts 316°
2026-05-08 02:59 -0.46729 32.94145 31955 ft 503 kts 316°
2026-05-08 02:59 -0.41705 32.89284 31956 ft 503 kts 316°
2026-05-08 03:00 -0.36714 32.84455 31959 ft 503 kts 316°
2026-05-08 03:00 -0.31673 32.79577 31980 ft 504 kts 316°
2026-05-08 03:01 -0.26623 32.74691 31979 ft 505 kts 316°
2026-05-08 03:01 -0.21568 32.69801 32003 ft 505 kts 316°
2026-05-08 03:02 -0.16548 32.64943 32003 ft 506 kts 316°
2026-05-08 03:02 -0.11486 32.60046 32019 ft 506 kts 316°
2026-05-08 03:03 -0.06432 32.55154 32019 ft 506 kts 316°
2026-05-08 03:03 -0.01371 32.50257 32032 ft 506 kts 316°
2026-05-08 03:04 0.03684 32.45346 32040 ft 506 kts 314°
2026-05-08 03:04 0.08122 32.39885 32054 ft 506 kts 304°
2026-05-08 03:05 0.12019 32.34064 32053 ft 507 kts 304°
2026-05-08 03:05 0.15973 32.28205 32066 ft 508 kts 304°
2026-05-08 03:06 0.19957 32.22371 32067 ft 508 kts 304°
2026-05-08 03:06 0.23958 32.16530 32062 ft 509 kts 304°
2026-05-08 03:07 0.27946 32.10700 32060 ft 508 kts 304°
2026-05-08 03:07 0.31913 32.04900 32062 ft 508 kts 304°
2026-05-08 03:08 0.35900 31.99051 32064 ft 508 kts 304°
2026-05-08 03:08 0.39869 31.93193 32057 ft 508 kts 304°
2026-05-08 03:09 0.43837 31.87336 32058 ft 508 kts 304°
2026-05-08 03:09 0.47780 31.81520 32054 ft 509 kts 304°
2026-05-08 03:10 0.51752 31.75664 32055 ft 508 kts 304°
2026-05-08 03:10 0.55718 31.69816 32047 ft 507 kts 304°
2026-05-08 03:11 0.59674 31.63982 32049 ft 506 kts 304°
2026-05-08 03:11 0.63602 31.58187 32046 ft 506 kts 304°
2026-05-08 03:12 0.67555 31.52361 32041 ft 505 kts 304°
2026-05-08 03:12 0.71516 31.46559 32041 ft 505 kts 304°
2026-05-08 03:13 0.75476 31.40763 32038 ft 504 kts 304°
2026-05-08 03:13 0.79434 31.34964 32032 ft 504 kts 304°
2026-05-08 03:14 0.83354 31.29218 32028 ft 504 kts 304°
2026-05-08 03:14 0.87308 31.23420 32030 ft 504 kts 303°
2026-05-08 03:15 0.91268 31.17614 32028 ft 505 kts 303°
2026-05-08 03:15 0.95226 31.11812 32016 ft 505 kts 303°
2026-05-08 03:16 0.99184 31.06008 32014 ft 506 kts 304°
2026-05-08 03:16 1.03140 31.00206 32015 ft 506 kts 304°
2026-05-08 03:17 1.07112 30.94382 31986 ft 507 kts 303°
2026-05-08 03:17 1.11078 30.88565 31986 ft 507 kts 303°
2026-05-08 03:18 1.15027 30.82774 31984 ft 506 kts 303°
2026-05-08 03:18 1.18991 30.76959 31965 ft 506 kts 303°
2026-05-08 03:19 1.22951 30.71150 31957 ft 506 kts 303°
2026-05-08 03:19 1.26909 30.65343 31956 ft 505 kts 304°
2026-05-08 03:20 1.30919 30.59575 31944 ft 505 kts 304°
2026-05-08 03:20 1.34963 30.53827 31937 ft 506 kts 304°
2026-05-08 03:21 1.39005 30.48065 31948 ft 506 kts 304°
2026-05-08 03:21 1.43013 30.42335 31945 ft 506 kts 304°
2026-05-08 03:22 1.47052 30.36556 31969 ft 506 kts 304°
2026-05-08 03:22 1.51089 30.30783 31969 ft 506 kts 304°
2026-05-08 03:23 1.55106 30.25038 31982 ft 505 kts 304°
2026-05-08 03:23 1.58572 30.18947 31988 ft 503 kts 294°
2026-05-08 03:24 1.61475 30.12572 31994 ft 503 kts 294°
2026-05-08 03:24 1.64398 30.06206 31996 ft 503 kts 294°
2026-05-08 03:25 1.67351 29.99868 32000 ft 502 kts 294°
2026-05-08 03:25 1.70290 29.93582 31986 ft 502 kts 294°
2026-05-08 03:26 1.73245 29.87252 31989 ft 501 kts 294°
2026-05-08 03:26 1.76187 29.80946 31991 ft 500 kts 294°
2026-05-08 03:27 1.79187 29.74663 31986 ft 500 kts 295°
2026-05-08 03:27 1.82260 29.68476 31983 ft 500 kts 296°
2026-05-08 03:28 1.85345 29.62247 31982 ft 500 kts 295°
2026-05-08 03:28 1.88415 29.56003 31981 ft 500 kts 295°
2026-05-08 03:29 1.91489 29.49748 31980 ft 501 kts 295°
2026-05-08 03:29 1.94530 29.43461 31975 ft 502 kts 295°
2026-05-08 03:30 1.98977 29.33991 31975 ft 503 kts 294°
2026-05-08 03:31 2.04952 29.21308 31968 ft 506 kts 295°
2026-05-08 03:32 2.09456 29.11774 31975 ft 509 kts 295°
2026-05-08 03:32 2.12481 29.05367 31971 ft 510 kts 295°
2026-05-08 03:33 2.15516 28.98938 31963 ft 511 kts 295°
2026-05-08 03:33 2.18536 28.92540 31963 ft 510 kts 294°
2026-05-08 03:34 2.21571 28.86109 31959 ft 510 kts 294°
2026-05-08 03:34 2.24595 28.79700 31961 ft 509 kts 294°
2026-05-08 03:35 2.27602 28.73328 31959 ft 509 kts 294°
2026-05-08 03:35 2.30621 28.66927 31959 ft 508 kts 294°
2026-05-08 03:36 2.33639 28.60529 31958 ft 508 kts 294°
2026-05-08 03:36 2.36638 28.54171 31952 ft 507 kts 294°
2026-05-08 03:37 2.39652 28.47779 31953 ft 507 kts 294°
2026-05-08 03:37 2.42664 28.41390 31948 ft 507 kts 294°
2026-05-08 03:38 2.45653 28.35049 31953 ft 507 kts 294°
2026-05-08 03:38 2.48659 28.28668 31945 ft 507 kts 294°
2026-05-08 03:39 2.51664 28.22293 31943 ft 506 kts 294°
2026-05-08 03:39 2.54689 28.15931 31945 ft 506 kts 295°
2026-05-08 03:40 2.57730 28.09582 31943 ft 506 kts 295°
2026-05-08 03:40 2.60775 28.03217 31942 ft 506 kts 295°
2026-05-08 03:41 2.63791 27.96901 31945 ft 505 kts 295°
2026-05-08 03:41 2.66826 27.90542 31945 ft 505 kts 295°
2026-05-08 03:42 2.69837 27.84232 31943 ft 505 kts 295°
2026-05-08 03:42 2.72870 27.77877 31943 ft 505 kts 295°
2026-05-08 03:43 2.75876 27.71575 31941 ft 505 kts 295°
2026-05-08 03:43 2.78904 27.65227 31939 ft 505 kts 295°
2026-05-08 03:44 2.82164 27.59006 31939 ft 506 kts 302°
2026-05-08 03:44 2.86327 27.53337 31940 ft 506 kts 307°
2026-05-08 03:45 2.90600 27.47740 31937 ft 506 kts 306°
2026-05-08 03:45 2.94137 27.43063 31938 ft 506 kts 306°
2026-05-08 03:46 2.99052 27.36509 31937 ft 506 kts 306°
2026-05-08 03:46 3.03275 27.30860 31937 ft 506 kts 306°
2026-05-08 03:47 3.06778 27.26175 31936 ft 506 kts 306°
2026-05-08 03:47 3.10997 27.20534 31937 ft 505 kts 306°
2026-05-08 03:48 3.15212 27.14900 31940 ft 505 kts 306°
2026-05-08 03:48 3.19420 27.09275 31935 ft 504 kts 306°
2026-05-08 03:49 3.23599 27.03687 31935 ft 504 kts 306°
2026-05-08 03:49 3.27798 26.98071 31934 ft 503 kts 306°
2026-05-08 03:50 3.32000 26.92451 31935 ft 503 kts 306°
2026-05-08 03:50 3.36171 26.86871 31938 ft 503 kts 306°
2026-05-08 03:51 3.40369 26.81254 31939 ft 503 kts 306°
2026-05-08 03:51 3.44562 26.75642 31933 ft 503 kts 306°
2026-05-08 03:52 3.48760 26.70024 31937 ft 503 kts 306°
2026-05-08 03:52 3.52928 26.64444 31937 ft 503 kts 306°
2026-05-08 03:53 3.57119 26.58833 31930 ft 503 kts 306°
2026-05-08 03:53 3.61310 26.53220 31934 ft 503 kts 306°
2026-05-08 03:54 3.65500 26.47607 31933 ft 502 kts 306°
2026-05-08 03:54 3.69663 26.42031 31934 ft 502 kts 306°
2026-05-08 03:55 3.73848 26.36424 31934 ft 502 kts 306°
2026-05-08 03:55 3.78031 26.30819 31935 ft 501 kts 306°
2026-05-08 03:56 3.82204 26.25226 31934 ft 501 kts 306°
2026-05-08 03:56 3.86374 26.19634 31934 ft 500 kts 306°
2026-05-08 03:57 3.90540 26.14048 31932 ft 500 kts 306°
2026-05-08 03:57 3.94675 26.08503 31934 ft 500 kts 306°
2026-05-08 03:58 3.98838 26.02919 31931 ft 499 kts 306°
2026-05-08 03:58 4.02992 25.97346 31931 ft 500 kts 306°
2026-05-08 03:59 4.07147 25.91770 31935 ft 499 kts 306°
2026-05-08 03:59 4.11301 25.86196 31929 ft 499 kts 306°
2026-05-08 04:00 4.15456 25.80617 31928 ft 499 kts 306°
2026-05-08 04:00 4.19612 25.75037 31932 ft 499 kts 306°
2026-05-08 04:01 4.23763 25.69463 31931 ft 499 kts 306°
2026-05-08 04:01 4.27899 25.63908 31927 ft 499 kts 306°
2026-05-08 04:02 4.32055 25.58324 31928 ft 499 kts 306°
2026-05-08 04:02 4.36183 25.52776 31928 ft 499 kts 306°
2026-05-08 04:03 4.40332 25.47199 31926 ft 499 kts 306°
2026-05-08 04:03 4.46533 25.38863 31926 ft 498 kts 306°
2026-05-08 04:04 4.50681 25.33284 31928 ft 499 kts 306°
2026-05-08 04:04 4.54826 25.27707 31930 ft 499 kts 306°
2026-05-08 04:05 4.58979 25.22119 31926 ft 499 kts 306°
2026-05-08 04:05 4.63112 25.16558 31926 ft 499 kts 306°
2026-05-08 04:06 4.67269 25.10966 31929 ft 499 kts 306°
2026-05-08 04:06 4.71402 25.05405 31929 ft 499 kts 306°
2026-05-08 04:07 4.75554 24.99813 31926 ft 499 kts 306°
2026-05-08 04:07 4.79709 24.94218 31925 ft 499 kts 306°
2026-05-08 04:08 4.83855 24.88633 31926 ft 499 kts 306°
2026-05-08 04:08 4.87993 24.83056 31929 ft 498 kts 306°
2026-05-08 04:09 4.92128 24.77483 31928 ft 497 kts 306°
2026-05-08 04:09 4.96235 24.71949 31927 ft 497 kts 306°
2026-05-08 04:10 5.00368 24.66382 31928 ft 497 kts 306°
2026-05-08 04:10 5.04491 24.60824 31929 ft 497 kts 306°
2026-05-08 04:11 5.08617 24.55259 31928 ft 497 kts 306°
2026-05-08 04:11 5.12745 24.49689 31927 ft 497 kts 306°
2026-05-08 04:12 5.16848 24.44154 31927 ft 497 kts 306°
2026-05-08 04:12 5.20977 24.38586 31924 ft 497 kts 306°
2026-05-08 04:13 5.25105 24.33017 31924 ft 495 kts 307°
2026-05-08 04:13 5.29209 24.27477 31924 ft 494 kts 307°
2026-05-08 04:14 5.33309 24.21942 31928 ft 493 kts 307°
2026-05-08 04:14 5.37375 24.16449 31929 ft 492 kts 307°
2026-05-08 04:15 5.41466 24.10922 31927 ft 492 kts 307°
2026-05-08 04:15 5.45552 24.05401 31928 ft 492 kts 307°
2026-05-08 04:16 5.49645 23.99868 31930 ft 493 kts 307°
2026-05-08 04:16 5.53713 23.94368 31928 ft 493 kts 307°
2026-05-08 04:17 5.57809 23.88829 31933 ft 494 kts 307°
2026-05-08 04:17 5.61895 23.83299 31927 ft 495 kts 307°
2026-05-08 04:18 5.66011 23.77729 31931 ft 496 kts 307°
2026-05-08 04:18 5.70164 23.72182 31928 ft 497 kts 307°
2026-05-08 04:19 5.74361 23.66656 31930 ft 497 kts 307°
2026-05-08 04:19 5.78525 23.61167 31929 ft 497 kts 307°
2026-05-08 04:20 5.82711 23.55633 31928 ft 497 kts 307°
2026-05-08 04:20 5.86891 23.50098 31928 ft 497 kts 307°
2026-05-08 04:21 5.91067 23.44566 31928 ft 496 kts 307°
2026-05-08 04:21 5.95243 23.39034 31932 ft 496 kts 308°
2026-05-08 04:22 5.99387 23.33544 31927 ft 495 kts 308°
2026-05-08 04:22 6.03556 23.28019 31929 ft 495 kts 308°
2026-05-08 04:23 6.07687 23.22542 31929 ft 494 kts 308°
2026-05-08 04:23 6.11846 23.17028 31929 ft 494 kts 308°
2026-05-08 04:24 6.16004 23.11512 31932 ft 494 kts 308°
2026-05-08 04:24 6.20159 23.05998 31932 ft 494 kts 308°
2026-05-08 04:25 6.24284 23.00523 31932 ft 494 kts 308°
2026-05-08 04:25 6.28440 22.95006 31934 ft 494 kts 308°
2026-05-08 04:26 6.32600 22.89481 31941 ft 494 kts 308°
2026-05-08 04:26 6.36755 22.83962 31935 ft 494 kts 308°
2026-05-08 04:27 6.40874 22.78489 31936 ft 493 kts 308°
2026-05-08 04:27 6.45016 22.72982 31936 ft 494 kts 309°
2026-05-08 04:28 6.49166 22.67464 31933 ft 494 kts 309°
2026-05-08 04:28 6.53316 22.61945 31932 ft 495 kts 309°
2026-05-08 04:29 6.57467 22.56422 31934 ft 495 kts 309°
2026-05-08 04:29 6.61599 22.50922 31930 ft 495 kts 309°
2026-05-08 04:30 6.65757 22.45386 31932 ft 495 kts 309°
2026-05-08 04:30 6.69921 22.39841 31934 ft 496 kts 309°
2026-05-08 04:31 6.74083 22.34296 31935 ft 496 kts 309°
2026-05-08 04:31 6.78222 22.28779 31935 ft 497 kts 309°
2026-05-08 04:32 6.82383 22.23232 31933 ft 497 kts 309°
2026-05-08 04:32 6.86554 22.17669 31934 ft 497 kts 309°
2026-05-08 04:33 6.90695 22.12144 31934 ft 497 kts 309°
2026-05-08 04:33 6.94861 22.06588 31935 ft 497 kts 309°
2026-05-08 04:34 6.99030 22.01031 31935 ft 497 kts 309°
2026-05-08 04:34 7.03199 21.95471 31934 ft 497 kts 309°
2026-05-08 04:35 7.07343 21.89939 31939 ft 496 kts 309°
2026-05-08 04:35 7.11501 21.84388 31932 ft 496 kts 309°
2026-05-08 04:36 7.14950 21.79781 31935 ft 495 kts 309°
2026-05-08 04:36 7.19101 21.74236 31934 ft 495 kts 309°
2026-05-08 04:37 7.23241 21.68701 31933 ft 495 kts 309°
2026-05-08 04:37 7.27381 21.63158 31935 ft 495 kts 309°
2026-05-08 04:38 7.31493 21.57651 31932 ft 495 kts 309°
2026-05-08 04:38 7.35630 21.52108 31937 ft 495 kts 309°
2026-05-08 04:39 7.39768 21.46562 31935 ft 495 kts 309°
2026-05-08 04:39 7.43907 21.41013 31942 ft 495 kts 310°
2026-05-08 04:40 7.48045 21.35462 31935 ft 495 kts 310°
2026-05-08 04:40 7.52155 21.29947 31933 ft 494 kts 310°
2026-05-08 04:41 7.56292 21.24395 31934 ft 494 kts 310°
2026-05-08 04:41 7.60426 21.18845 31937 ft 494 kts 310°
2026-05-08 04:42 7.64522 21.13343 31931 ft 494 kts 310°
2026-05-08 04:42 7.68650 21.07797 31934 ft 494 kts 310°
2026-05-08 04:43 7.72770 21.02259 31932 ft 493 kts 310°
2026-05-08 04:43 7.76889 20.96720 31925 ft 493 kts 310°
2026-05-08 04:44 7.81009 20.91178 31930 ft 493 kts 310°
2026-05-08 04:44 7.85099 20.85675 31921 ft 493 kts 310°
2026-05-08 04:45 7.89213 20.80136 31918 ft 492 kts 310°
2026-05-08 04:45 7.93319 20.74605 31917 ft 492 kts 310°
2026-05-08 04:46 7.97423 20.69075 31916 ft 492 kts 310°
2026-05-08 04:46 8.01540 20.63560 31920 ft 492 kts 310°
2026-05-08 04:47 8.05746 20.58158 31908 ft 491 kts 311°
2026-05-08 04:47 8.09993 20.52756 31911 ft 491 kts 311°
2026-05-08 04:48 8.14235 20.47329 31911 ft 492 kts 311°
2026-05-08 04:48 8.18462 20.41899 31907 ft 492 kts 311°
2026-05-08 04:49 8.22691 20.36459 31909 ft 492 kts 311°
2026-05-08 04:49 8.26905 20.31037 31907 ft 492 kts 311°
2026-05-08 04:50 8.31138 20.25589 31907 ft 492 kts 311°
2026-05-08 04:50 8.35344 20.20176 31905 ft 492 kts 311°
2026-05-08 04:51 8.39575 20.14727 31904 ft 492 kts 311°
2026-05-08 04:51 8.43794 20.09292 31901 ft 492 kts 311°
2026-05-08 04:52 8.48019 20.03846 31896 ft 492 kts 311°
2026-05-08 04:52 8.52223 19.98426 31896 ft 492 kts 311°
2026-05-08 04:53 8.56448 19.92976 31892 ft 492 kts 311°
2026-05-08 04:53 8.60664 19.87536 31889 ft 491 kts 311°
2026-05-08 04:54 8.64879 19.82094 31890 ft 491 kts 311°
2026-05-08 04:54 8.69058 19.76695 31890 ft 490 kts 311°
2026-05-08 04:55 8.73265 19.71261 31893 ft 490 kts 311°
2026-05-08 04:55 8.77475 19.65827 31893 ft 490 kts 311°
2026-05-08 04:56 8.81680 19.60400 31897 ft 490 kts 311°
2026-05-08 04:56 8.85881 19.54974 31899 ft 490 kts 311°
2026-05-08 04:57 8.90070 19.49560 31904 ft 490 kts 311°
2026-05-08 04:57 8.94273 19.44125 31907 ft 490 kts 311°
2026-05-08 04:58 8.98472 19.38693 31906 ft 490 kts 311°
2026-05-08 04:58 9.02647 19.33289 31915 ft 490 kts 311°
2026-05-08 04:59 9.06870 19.27822 31915 ft 490 kts 311°
2026-05-08 04:59 9.11037 19.22424 31918 ft 490 kts 311°
2026-05-08 05:00 9.15235 19.16985 31920 ft 490 kts 311°
2026-05-08 05:00 9.19435 19.11540 31924 ft 490 kts 311°
2026-05-08 05:01 9.23607 19.06129 31925 ft 490 kts 311°
2026-05-08 05:01 9.27801 19.00688 31923 ft 490 kts 311°
2026-05-08 05:02 9.31996 18.95242 31926 ft 490 kts 311°
2026-05-08 05:02 9.36187 18.89799 31922 ft 490 kts 311°
2026-05-08 05:03 9.40380 18.84351 31921 ft 490 kts 311°
2026-05-08 05:03 9.44545 18.78936 31922 ft 490 kts 311°
2026-05-08 05:04 9.48737 18.73485 31920 ft 490 kts 311°
2026-05-08 05:04 9.52934 18.68020 31911 ft 491 kts 311°
2026-05-08 05:05 9.57100 18.62585 31921 ft 491 kts 311°
2026-05-08 05:05 9.61295 18.57110 31909 ft 491 kts 311°
2026-05-08 05:06 9.65484 18.51639 31914 ft 491 kts 311°
2026-05-08 05:06 9.69673 18.46166 31913 ft 491 kts 311°
2026-05-08 05:07 9.73864 18.40689 31897 ft 491 kts 311°
2026-05-08 05:07 9.78024 18.35249 31904 ft 491 kts 311°
2026-05-08 05:08 9.82216 18.29765 31905 ft 491 kts 311°
2026-05-08 05:08 9.86404 18.24286 31903 ft 491 kts 311°
2026-05-08 05:09 9.90566 18.18836 31908 ft 491 kts 311°
2026-05-08 05:09 9.94752 18.13352 31894 ft 491 kts 311°
2026-05-08 05:10 10.01035 18.05116 31894 ft 491 kts 311°
2026-05-08 05:11 10.05200 17.99655 31888 ft 491 kts 311°
2026-05-08 05:11 10.09385 17.94163 31890 ft 491 kts 311°
2026-05-08 05:12 10.13565 17.88676 31883 ft 490 kts 311°
2026-05-08 05:12 10.17737 17.83196 31881 ft 490 kts 311°
2026-05-08 05:13 10.21877 17.77757 31880 ft 490 kts 311°
2026-05-08 05:13 10.26040 17.72284 31881 ft 489 kts 311°
2026-05-08 05:14 10.30203 17.66808 31875 ft 490 kts 311°
2026-05-08 05:14 10.34366 17.61330 31877 ft 490 kts 311°
2026-05-08 05:15 10.38534 17.55843 31874 ft 490 kts 311°
2026-05-08 05:15 10.42674 17.50389 31874 ft 490 kts 311°
2026-05-08 05:16 10.46834 17.44908 31876 ft 490 kts 311°
2026-05-08 05:16 10.51003 17.39410 31866 ft 490 kts 311°
2026-05-08 05:17 10.55165 17.33920 31876 ft 490 kts 311°
2026-05-08 05:17 10.59327 17.28426 31873 ft 490 kts 311°
2026-05-08 05:18 10.63483 17.22937 31872 ft 489 kts 311°
2026-05-08 05:18 10.67636 17.17449 31878 ft 489 kts 311°
2026-05-08 05:19 10.71755 17.11994 31876 ft 490 kts 310°
2026-05-08 05:19 10.75705 17.06341 31877 ft 491 kts 308°
2026-05-08 05:20 10.79577 17.00623 31877 ft 490 kts 308°
2026-05-08 05:20 10.83475 16.94933 31885 ft 490 kts 308°
2026-05-08 05:21 10.87390 16.89260 31878 ft 490 kts 308°
2026-05-08 05:21 10.91287 16.83612 31881 ft 489 kts 308°
2026-05-08 05:22 10.95194 16.77941 31879 ft 489 kts 308°
2026-05-08 05:22 10.99101 16.72273 31880 ft 489 kts 308°
2026-05-08 05:23 11.03007 16.66604 31876 ft 488 kts 308°
2026-05-08 05:23 11.06904 16.60942 31883 ft 488 kts 308°
2026-05-08 05:24 11.10797 16.55284 31881 ft 488 kts 308°
2026-05-08 05:24 11.14663 16.49660 31877 ft 488 kts 308°
2026-05-08 05:25 11.18556 16.43995 31881 ft 488 kts 308°
2026-05-08 05:25 11.22451 16.38323 31888 ft 488 kts 308°
2026-05-08 05:26 11.26345 16.32651 31876 ft 488 kts 308°
2026-05-08 05:26 11.30230 16.26988 31877 ft 488 kts 308°
2026-05-08 05:27 11.33461 16.22276 31875 ft 488 kts 308°
2026-05-08 05:27 11.37980 16.15681 31878 ft 488 kts 308°
2026-05-08 05:28 11.41206 16.10973 31873 ft 488 kts 308°
2026-05-08 05:28 11.45087 16.05303 31878 ft 487 kts 308°
2026-05-08 05:29 11.48975 15.99621 31877 ft 487 kts 308°
2026-05-08 05:29 11.52857 15.93944 31876 ft 487 kts 308°
2026-05-08 05:30 11.56716 15.88298 31877 ft 487 kts 308°
2026-05-08 05:30 11.60589 15.82627 31884 ft 487 kts 308°
2026-05-08 05:31 11.64470 15.76943 31875 ft 487 kts 308°
2026-05-08 05:31 11.68346 15.71261 31877 ft 487 kts 308°
2026-05-08 05:32 11.72212 15.65592 31877 ft 487 kts 308°
2026-05-08 05:32 11.76063 15.59942 31885 ft 487 kts 308°
2026-05-08 05:33 11.79926 15.54269 31886 ft 487 kts 308°
2026-05-08 05:33 11.83796 15.48585 31885 ft 487 kts 308°
2026-05-08 05:34 11.87672 15.42888 31883 ft 487 kts 308°
2026-05-08 05:34 11.91516 15.37235 31888 ft 487 kts 308°
2026-05-08 05:35 11.95381 15.31546 31885 ft 487 kts 308°
2026-05-08 05:35 11.99248 15.25852 31876 ft 488 kts 308°
2026-05-08 05:36 12.03120 15.20147 31870 ft 488 kts 308°
2026-05-08 05:36 12.06960 15.14484 31863 ft 488 kts 308°
2026-05-08 05:37 12.10826 15.08786 31858 ft 485 kts 309°
2026-05-08 05:37 12.13001 15.06169 31851 ft 480 kts 320°
2026-05-08 05:37 12.15624 15.04087 31865 ft 477 kts 329°
2026-05-08 05:38 12.21624 15.01366 31868 ft 471 kts 345°
2026-05-08 05:38 12.27914 14.99532 31905 ft 474 kts 345°
2026-05-08 05:39 12.34267 14.97656 31898 ft 476 kts 345°
2026-05-08 05:39 12.40628 14.95732 31901 ft 477 kts 344°
2026-05-08 05:40 12.46986 14.93787 31896 ft 476 kts 344°
2026-05-08 05:40 12.53335 14.91841 31898 ft 476 kts 344°
2026-05-08 05:41 12.59642 14.89908 31900 ft 475 kts 345°
2026-05-08 05:41 12.65978 14.87967 31900 ft 475 kts 345°
2026-05-08 05:42 12.72333 14.86019 31898 ft 475 kts 344°
2026-05-08 05:42 12.78638 14.84085 31899 ft 475 kts 344°
2026-05-08 05:43 12.84984 14.82138 31898 ft 475 kts 344°
2026-05-08 05:43 12.91282 14.80205 31899 ft 475 kts 344°
2026-05-08 05:44 12.97624 14.78257 31895 ft 475 kts 344°
2026-05-08 05:44 13.03962 14.76309 31893 ft 476 kts 344°
2026-05-08 05:45 13.10320 14.74354 31884 ft 476 kts 343°
2026-05-08 05:45 13.16674 14.72399 31891 ft 476 kts 343°
2026-05-08 05:46 13.22988 14.70456 31893 ft 477 kts 343°
2026-05-08 05:46 13.29350 14.68496 31891 ft 477 kts 343°
2026-05-08 05:47 13.35720 14.66533 31887 ft 477 kts 343°
2026-05-08 05:47 13.42082 14.64572 31885 ft 477 kts 343°
2026-05-08 05:48 13.48459 14.62605 31893 ft 477 kts 343°
2026-05-08 05:48 13.54793 14.60649 31889 ft 477 kts 343°
2026-05-08 05:49 13.61159 14.58683 31888 ft 477 kts 343°
2026-05-08 05:49 13.67516 14.56719 31891 ft 477 kts 343°
2026-05-08 05:50 13.73842 14.54763 31890 ft 477 kts 343°
2026-05-08 05:50 13.80200 14.52796 31902 ft 476 kts 343°
2026-05-08 05:51 13.86550 14.50830 31891 ft 476 kts 343°
2026-05-08 05:51 13.92892 14.48866 31894 ft 476 kts 343°
2026-05-08 05:52 13.99240 14.46899 31895 ft 475 kts 343°
2026-05-08 05:52 14.05579 14.44933 31896 ft 475 kts 343°
2026-05-08 05:53 14.11871 14.42981 31894 ft 475 kts 343°
2026-05-08 05:53 14.18213 14.41012 31897 ft 475 kts 343°
2026-05-08 05:54 14.24555 14.39042 31899 ft 475 kts 343°
2026-05-08 05:54 14.30894 14.37071 31898 ft 476 kts 343°
2026-05-08 05:55 14.37233 14.35100 31896 ft 476 kts 343°
2026-05-08 05:55 14.43539 14.33137 31897 ft 476 kts 343°
2026-05-08 05:56 14.49881 14.31162 31900 ft 476 kts 343°
2026-05-08 05:56 14.56224 14.29184 31897 ft 475 kts 343°
2026-05-08 05:57 14.62564 14.27206 31901 ft 475 kts 343°
2026-05-08 05:57 14.68853 14.25242 31904 ft 475 kts 343°
2026-05-08 05:58 14.75196 14.23261 31904 ft 474 kts 343°
2026-05-08 05:58 14.81481 14.21296 31904 ft 474 kts 343°
2026-05-08 05:59 14.87806 14.19319 31907 ft 474 kts 342°
2026-05-08 05:59 14.94134 14.17338 31905 ft 475 kts 342°
2026-05-08 06:00 15.00452 14.15359 31907 ft 475 kts 342°
2026-05-08 06:00 15.06789 14.13373 31913 ft 475 kts 342°
2026-05-08 06:01 15.13108 14.11392 31911 ft 475 kts 342°
2026-05-08 06:01 15.19387 14.09422 31911 ft 475 kts 342°
2026-05-08 06:02 15.25716 14.07436 31910 ft 475 kts 342°
2026-05-08 06:02 15.32043 14.05448 31907 ft 475 kts 342°
2026-05-08 06:03 15.38363 14.03461 31912 ft 474 kts 342°
2026-05-08 06:03 15.44690 14.01472 31912 ft 475 kts 342°
2026-05-08 06:04 15.51016 13.99480 31917 ft 474 kts 342°
2026-05-08 06:04 15.57291 13.97504 31916 ft 474 kts 342°
2026-05-08 06:05 15.63618 13.95511 31915 ft 474 kts 342°
2026-05-08 06:05 15.69941 13.93517 31919 ft 474 kts 342°
2026-05-08 06:06 15.76253 13.91525 31921 ft 474 kts 342°
2026-05-08 06:06 15.82521 13.89546 31920 ft 474 kts 342°
2026-05-08 06:07 15.88831 13.87552 31921 ft 474 kts 342°
2026-05-08 06:07 15.95156 13.85553 31922 ft 474 kts 342°
2026-05-08 06:08 16.01469 13.83555 31920 ft 474 kts 342°
2026-05-08 06:08 16.07742 13.81569 31928 ft 474 kts 342°
2026-05-08 06:09 16.14063 13.79567 31927 ft 474 kts 342°
2026-05-08 06:09 16.20377 13.77566 31928 ft 474 kts 342°
2026-05-08 06:10 16.26655 13.75574 31927 ft 474 kts 342°
2026-05-08 06:10 16.32974 13.73568 31932 ft 474 kts 342°
2026-05-08 06:11 16.39278 13.71565 31936 ft 473 kts 342°
2026-05-08 06:11 16.45592 13.69558 31936 ft 473 kts 342°
2026-05-08 06:12 16.51893 13.67554 31940 ft 473 kts 342°
2026-05-08 06:12 16.58199 13.65547 31941 ft 473 kts 342°
2026-05-08 06:13 16.64465 13.63547 31942 ft 473 kts 342°
2026-05-08 06:13 16.70764 13.61533 31940 ft 474 kts 342°
2026-05-08 06:14 16.77072 13.59515 31944 ft 474 kts 342°
2026-05-08 06:14 16.83380 13.57496 31941 ft 474 kts 342°
2026-05-08 06:15 16.89689 13.55475 31943 ft 474 kts 342°
2026-05-08 06:15 16.94931 13.53794 31944 ft 474 kts 342°
2026-05-08 06:16 17.02264 13.51442 31944 ft 474 kts 342°
2026-05-08 06:16 17.07552 13.49745 31947 ft 474 kts 341°
2026-05-08 06:17 17.16986 13.46714 31941 ft 475 kts 341°
2026-05-08 06:17 17.23301 13.44683 31943 ft 475 kts 341°
2026-05-08 06:18 17.29627 13.42648 31945 ft 475 kts 341°
2026-05-08 06:18 17.35956 13.40610 31941 ft 475 kts 341°
2026-05-08 06:19 17.42280 13.38572 31946 ft 475 kts 341°
2026-05-08 06:19 17.48601 13.36533 31945 ft 475 kts 341°
2026-05-08 06:20 17.54883 13.34508 31942 ft 475 kts 341°
2026-05-08 06:20 17.61206 13.32477 31942 ft 475 kts 341°
2026-05-08 06:21 17.67531 13.30445 31942 ft 475 kts 341°
2026-05-08 06:21 17.73850 13.28412 31943 ft 475 kts 341°
2026-05-08 06:22 17.80166 13.26377 31946 ft 475 kts 341°
2026-05-08 06:22 17.86485 13.24340 31946 ft 475 kts 341°
2026-05-08 06:23 17.92811 13.22299 31942 ft 475 kts 341°
2026-05-08 06:23 17.99097 13.20270 31945 ft 475 kts 341°
2026-05-08 06:24 18.05422 13.18226 31944 ft 475 kts 341°
2026-05-08 06:24 18.11740 13.16183 31942 ft 475 kts 341°
2026-05-08 06:25 18.18023 13.14150 31947 ft 475 kts 341°
2026-05-08 06:25 18.24345 13.12103 31940 ft 475 kts 341°
2026-05-08 06:26 18.30664 13.10055 31946 ft 475 kts 341°
2026-05-08 06:26 18.37012 13.07996 31941 ft 475 kts 341°
2026-05-08 06:27 18.43336 13.05944 31936 ft 476 kts 341°
2026-05-08 06:27 18.49629 13.03900 31936 ft 476 kts 341°
2026-05-08 06:28 18.55970 13.01838 31934 ft 476 kts 341°
2026-05-08 06:28 18.62297 12.99780 31937 ft 476 kts 341°
2026-05-08 06:29 18.68596 12.97729 31941 ft 476 kts 341°
2026-05-08 06:29 18.74942 12.95661 31938 ft 476 kts 341°
2026-05-08 06:30 18.81272 12.93597 31933 ft 476 kts 341°
2026-05-08 06:30 18.87601 12.91531 31934 ft 476 kts 341°
2026-05-08 06:31 18.93946 12.89459 31930 ft 476 kts 340°
2026-05-08 06:31 19.00067 12.86860 31934 ft 473 kts 331°
2026-05-08 06:32 19.05699 12.83355 31936 ft 472 kts 327°
2026-05-08 06:32 19.11311 12.79741 31930 ft 473 kts 327°
2026-05-08 06:33 19.16927 12.76149 31924 ft 473 kts 327°
2026-05-08 06:33 19.22591 12.72542 31918 ft 473 kts 327°
2026-05-08 06:34 19.28238 12.68947 31920 ft 473 kts 327°
2026-05-08 06:34 19.33886 12.65349 31920 ft 474 kts 327°
2026-05-08 06:35 19.39497 12.61772 31916 ft 474 kts 327°
2026-05-08 06:35 19.45147 12.58165 31914 ft 474 kts 327°
2026-05-08 06:36 19.50802 12.54553 31913 ft 474 kts 327°
2026-05-08 06:36 19.56449 12.50942 31912 ft 474 kts 327°
2026-05-08 06:37 19.62100 12.47327 31910 ft 474 kts 327°
2026-05-08 06:37 19.67756 12.43705 31907 ft 474 kts 327°
2026-05-08 06:38 19.73372 12.40105 31916 ft 474 kts 327°
2026-05-08 06:38 19.79022 12.36481 31908 ft 474 kts 327°
2026-05-08 06:39 19.84673 12.32853 31908 ft 474 kts 327°
2026-05-08 06:39 19.90325 12.29221 31905 ft 474 kts 327°
2026-05-08 06:40 19.95940 12.25611 31907 ft 474 kts 327°
2026-05-08 06:40 20.01583 12.21979 31907 ft 474 kts 327°
2026-05-08 06:41 20.07227 12.18343 31911 ft 474 kts 326°
2026-05-08 06:41 20.12876 12.14700 31905 ft 474 kts 326°
2026-05-08 06:42 20.18488 12.11079 31908 ft 474 kts 326°
2026-05-08 06:42 20.24135 12.07432 31906 ft 474 kts 326°
2026-05-08 06:43 20.29780 12.03783 31911 ft 474 kts 326°
2026-05-08 06:43 20.35424 12.00131 31912 ft 474 kts 326°
2026-05-08 06:44 20.41067 11.96478 31918 ft 475 kts 326°
2026-05-08 06:44 20.46689 11.92834 31920 ft 475 kts 326°
2026-05-08 06:45 20.52340 11.89167 31918 ft 475 kts 326°
2026-05-08 06:45 20.57989 11.85500 31918 ft 475 kts 326°
2026-05-08 06:46 20.63640 11.81836 31920 ft 475 kts 326°
2026-05-08 06:46 20.69256 11.78191 31921 ft 475 kts 326°
2026-05-08 06:47 20.74913 11.74515 31929 ft 475 kts 326°
2026-05-08 06:47 20.80570 11.70835 31917 ft 474 kts 326°
2026-05-08 06:48 20.86167 11.67191 31926 ft 474 kts 325°
2026-05-08 06:48 20.91803 11.63519 31923 ft 473 kts 325°
2026-05-08 06:49 20.97427 11.59850 31920 ft 473 kts 325°
2026-05-08 06:49 21.03042 11.56185 31923 ft 473 kts 325°
2026-05-08 06:50 21.08654 11.52516 31921 ft 473 kts 325°
2026-05-08 06:50 21.14267 11.48846 31921 ft 473 kts 325°
2026-05-08 06:51 21.19891 11.45162 31926 ft 473 kts 325°
2026-05-08 06:51 21.25476 11.41499 31926 ft 473 kts 325°
2026-05-08 06:52 21.31091 11.37811 31927 ft 473 kts 325°
2026-05-08 06:52 21.36703 11.34123 31926 ft 473 kts 325°
2026-05-08 06:53 21.42323 11.30426 31948 ft 473 kts 324°
2026-05-08 06:53 21.47937 11.26731 31930 ft 472 kts 324°
2026-05-08 06:54 21.53532 11.23044 31930 ft 471 kts 324°
2026-05-08 06:54 21.59081 11.19384 31933 ft 470 kts 324°
2026-05-08 06:55 21.64653 11.15705 31931 ft 470 kts 324°
2026-05-08 06:55 21.70231 11.12019 31937 ft 470 kts 324°
2026-05-08 06:56 21.75804 11.08332 31954 ft 470 kts 324°
2026-05-08 06:56 21.81347 11.04662 31942 ft 470 kts 324°
2026-05-08 06:57 21.86929 11.00963 31939 ft 470 kts 324°
2026-05-08 06:57 21.92463 10.97293 31939 ft 470 kts 324°
2026-05-08 06:58 21.98040 10.93590 31937 ft 470 kts 324°
2026-05-08 06:58 22.03619 10.89883 31939 ft 470 kts 324°
2026-05-08 06:59 22.09187 10.86180 31937 ft 470 kts 324°
2026-05-08 06:59 22.14753 10.82474 31951 ft 470 kts 324°
2026-05-08 07:00 22.20298 10.78779 31945 ft 471 kts 324°
2026-05-08 07:00 22.25872 10.75061 31947 ft 471 kts 323°
2026-05-08 07:01 22.31449 10.71338 31939 ft 471 kts 324°
2026-05-08 07:01 22.37024 10.67612 31942 ft 470 kts 323°
2026-05-08 07:02 22.42591 10.63888 31944 ft 470 kts 323°
2026-05-08 07:02 22.48118 10.60187 31947 ft 471 kts 323°
2026-05-08 07:03 22.52755 10.57079 31949 ft 471 kts 323°
2026-05-08 07:03 22.58332 10.53337 31933 ft 471 kts 323°
2026-05-08 07:04 22.63906 10.49597 31934 ft 471 kts 323°
2026-05-08 07:04 22.69561 10.46008 31934 ft 472 kts 325°
2026-05-08 07:05 22.75250 10.42507 31948 ft 472 kts 325°
2026-05-08 07:05 22.80953 10.38977 31952 ft 472 kts 324°
2026-05-08 07:06 22.86648 10.35422 31948 ft 472 kts 324°
2026-05-08 07:06 22.92335 10.31859 31948 ft 472 kts 324°
2026-05-08 07:07 22.97987 10.28313 31951 ft 472 kts 324°
2026-05-08 07:07 23.03671 10.24745 31950 ft 472 kts 324°
2026-05-08 07:08 23.09360 10.21171 31952 ft 472 kts 324°
2026-05-08 07:08 23.15027 10.17608 31958 ft 473 kts 324°
2026-05-08 07:09 23.20734 10.14016 31956 ft 474 kts 324°
2026-05-08 07:09 23.26456 10.10411 31953 ft 474 kts 324°
2026-05-08 07:10 23.32137 10.06828 31960 ft 474 kts 324°
2026-05-08 07:10 23.37856 10.03218 31959 ft 474 kts 324°
2026-05-08 07:11 23.43570 9.99607 31980 ft 474 kts 323°
2026-05-08 07:11 23.49282 9.95993 31968 ft 475 kts 323°
2026-05-08 07:12 23.54957 9.92399 31966 ft 475 kts 323°
2026-05-08 07:12 23.60662 9.88784 31972 ft 475 kts 323°
2026-05-08 07:13 23.66374 9.85159 31969 ft 475 kts 323°
2026-05-08 07:13 23.72091 9.81529 31971 ft 475 kts 323°
2026-05-08 07:14 23.77795 9.77901 31980 ft 474 kts 323°
2026-05-08 07:14 23.83504 9.74268 31970 ft 474 kts 323°
2026-05-08 07:15 23.89212 9.70631 31971 ft 474 kts 323°
2026-05-08 07:15 23.94877 9.67018 31971 ft 474 kts 323°
2026-05-08 07:16 24.00575 9.63379 31984 ft 474 kts 323°
2026-05-08 07:16 24.06271 9.59739 32012 ft 474 kts 323°
2026-05-08 07:17 24.11979 9.56086 32035 ft 475 kts 323°
2026-05-08 07:17 24.17682 9.52433 32057 ft 474 kts 323°
2026-05-08 07:18 24.23341 9.48806 32071 ft 474 kts 323°
2026-05-08 07:18 24.29338 9.45660 32099 ft 483 kts 332°
2026-05-08 07:19 24.35865 9.43618 32078 ft 492 kts 341°
2026-05-08 07:19 24.42606 9.42161 32063 ft 493 kts 341°
2026-05-08 07:20 24.49300 9.40737 32052 ft 493 kts 341°
2026-05-08 07:20 24.56035 9.39266 32032 ft 493 kts 341°
2026-05-08 07:21 24.62759 9.37773 31997 ft 493 kts 341°
2026-05-08 07:21 24.69491 9.36272 32004 ft 493 kts 341°
2026-05-08 07:22 24.76219 9.34772 32024 ft 494 kts 341°
2026-05-08 07:22 24.82961 9.33268 32025 ft 494 kts 341°
2026-05-08 07:23 24.89666 9.31771 32043 ft 494 kts 341°
2026-05-08 07:23 24.96417 9.30263 32029 ft 495 kts 341°
2026-05-08 07:24 25.03135 9.28761 32050 ft 494 kts 341°
2026-05-08 07:24 25.09887 9.27249 32045 ft 495 kts 341°
2026-05-08 07:25 25.16645 9.25734 32052 ft 495 kts 341°
2026-05-08 07:26 25.26736 9.23469 32059 ft 495 kts 341°
2026-05-08 07:26 25.33485 9.21951 32063 ft 494 kts 341°
2026-05-08 07:27 25.40231 9.20433 32058 ft 495 kts 341°
2026-05-08 07:27 25.46944 9.18920 32053 ft 494 kts 341°
2026-05-08 07:28 25.53682 9.17400 32035 ft 494 kts 341°
2026-05-08 07:28 25.60416 9.15878 32031 ft 493 kts 341°
2026-05-08 07:29 25.67146 9.14356 32065 ft 493 kts 341°
2026-05-08 07:29 25.73866 9.12835 32035 ft 492 kts 341°
2026-05-08 07:30 25.80549 9.11320 32013 ft 492 kts 341°
2026-05-08 07:30 25.87261 9.09797 32019 ft 491 kts 341°
2026-05-08 07:31 25.93950 9.08277 32033 ft 491 kts 341°
2026-05-08 07:31 26.00608 9.06762 32033 ft 491 kts 341°
2026-05-08 07:32 26.07315 9.05247 32019 ft 492 kts 341°
2026-05-08 07:32 26.14027 9.03734 32008 ft 491 kts 341°
2026-05-08 07:33 26.20735 9.02219 32008 ft 492 kts 341°
2026-05-08 07:33 26.27445 9.00701 32008 ft 492 kts 341°
2026-05-08 07:34 26.34124 8.99188 32015 ft 493 kts 341°
2026-05-08 07:34 26.40856 8.97660 31992 ft 493 kts 341°
2026-05-08 07:35 26.47586 8.96132 31996 ft 494 kts 341°
2026-05-08 07:35 26.54339 8.94595 31994 ft 495 kts 341°
2026-05-08 07:36 26.61054 8.93067 31995 ft 495 kts 341°
2026-05-08 07:36 26.67822 8.91525 31977 ft 495 kts 341°
2026-05-08 07:37 26.74597 8.89979 32004 ft 495 kts 341°
2026-05-08 07:37 26.81343 8.88437 31999 ft 495 kts 341°
2026-05-08 07:38 26.88043 8.86904 31994 ft 494 kts 341°
2026-05-08 07:38 26.94791 8.85357 31991 ft 495 kts 341°
2026-05-08 07:39 27.01548 8.83809 31977 ft 496 kts 341°
2026-05-08 07:39 27.08324 8.82270 31968 ft 496 kts 341°
2026-05-08 07:40 27.15072 8.80741 31971 ft 496 kts 341°
2026-05-08 07:40 27.21866 8.79197 31986 ft 497 kts 341°
2026-05-08 07:41 27.28648 8.77651 31976 ft 498 kts 341°
2026-05-08 07:41 27.35449 8.76099 31970 ft 498 kts 341°
2026-05-08 07:42 27.42202 8.74557 31965 ft 498 kts 341°
2026-05-08 07:42 27.48993 8.73004 31965 ft 498 kts 341°
2026-05-08 07:43 27.55794 8.71447 31976 ft 497 kts 341°
2026-05-08 07:43 27.62587 8.69890 31969 ft 497 kts 341°
2026-05-08 07:44 27.69310 8.68347 31968 ft 495 kts 341°
2026-05-08 07:44 27.76069 8.66793 31967 ft 495 kts 341°
2026-05-08 07:45 27.82826 8.65237 31967 ft 494 kts 341°
2026-05-08 07:45 27.89573 8.63682 31970 ft 494 kts 341°
2026-05-08 07:46 27.96261 8.62139 31969 ft 493 kts 341°
2026-05-08 07:46 28.02987 8.60585 31971 ft 493 kts 341°
2026-05-08 07:47 28.09713 8.59028 31975 ft 493 kts 341°
2026-05-08 07:47 28.16457 8.57478 31974 ft 494 kts 341°
2026-05-08 07:48 28.23161 8.55945 31975 ft 494 kts 341°
2026-05-08 07:48 28.29893 8.54402 31971 ft 493 kts 341°
2026-05-08 07:49 28.36636 8.52852 31976 ft 493 kts 341°
2026-05-08 07:49 28.43362 8.51303 31974 ft 493 kts 341°
2026-05-08 07:50 28.50092 8.49752 31969 ft 493 kts 341°
2026-05-08 07:50 28.56822 8.48199 31975 ft 493 kts 341°
2026-05-08 07:51 28.63501 8.46655 31973 ft 493 kts 341°
2026-05-08 07:51 28.70219 8.45100 31988 ft 493 kts 341°
2026-05-08 07:52 28.75812 8.43803 31979 ft 493 kts 341°
2026-05-08 07:52 28.82541 8.42242 31972 ft 493 kts 341°
2026-05-08 07:53 28.89266 8.40680 31968 ft 492 kts 341°
2026-05-08 07:53 28.95946 8.39127 31970 ft 492 kts 341°
2026-05-08 07:54 29.02668 8.37560 31971 ft 492 kts 342°
2026-05-08 07:54 29.09385 8.35994 31966 ft 492 kts 342°
2026-05-08 07:55 29.16101 8.34426 31967 ft 492 kts 342°
2026-05-08 07:55 29.22762 8.32869 31962 ft 490 kts 342°
2026-05-08 07:56 29.29436 8.31307 31990 ft 488 kts 343°
2026-05-08 07:56 29.36084 8.29748 31960 ft 486 kts 343°
2026-05-08 07:57 29.42710 8.28192 31960 ft 484 kts 343°
2026-05-08 07:57 29.49278 8.26648 31959 ft 483 kts 343°
2026-05-08 07:58 29.55885 8.25092 31960 ft 483 kts 343°
2026-05-08 07:58 29.62436 8.23546 31945 ft 483 kts 343°
2026-05-08 07:59 29.69016 8.21994 31951 ft 482 kts 343°
2026-05-08 07:59 29.75603 8.20437 31965 ft 481 kts 343°
2026-05-08 08:00 29.82122 8.18894 32734 ft 481 kts 343°
2026-05-08 08:00 29.85419 8.18109 31666 ft 487 kts 342°
2026-05-08 08:00 29.88755 8.17318 31832 ft 493 kts 341°
2026-05-08 08:01 29.95603 8.15688 31920 ft 509 kts 341°
2026-05-08 08:01 30.02612 8.14026 31931 ft 518 kts 341°
2026-05-08 08:02 30.09634 8.12366 31912 ft 519 kts 341°
2026-05-08 08:02 30.16727 8.10708 31932 ft 520 kts 341°
2026-05-08 08:03 30.23827 8.09047 31923 ft 520 kts 342°
2026-05-08 08:03 30.30923 8.07385 31912 ft 520 kts 342°
2026-05-08 08:04 30.38012 8.05721 31910 ft 519 kts 342°
2026-05-08 08:04 30.45043 8.04065 31909 ft 518 kts 342°
2026-05-08 08:05 30.52111 8.02399 31904 ft 518 kts 342°
2026-05-08 08:05 30.59176 8.00731 31904 ft 517 kts 342°
2026-05-08 08:06 30.66218 7.99064 31908 ft 516 kts 342°
2026-05-08 08:06 30.73268 7.97395 31917 ft 517 kts 341°
2026-05-08 08:07 30.80349 7.95714 31910 ft 520 kts 341°
2026-05-08 08:07 30.87402 7.94037 31910 ft 521 kts 341°
2026-05-08 08:08 30.94522 7.92345 31908 ft 523 kts 341°
2026-05-08 08:08 31.01646 7.90649 31932 ft 522 kts 341°
2026-05-08 08:09 31.08764 7.88953 31910 ft 521 kts 341°
2026-05-08 08:09 31.15852 7.87259 31898 ft 518 kts 341°
2026-05-08 08:10 31.22910 7.85570 31907 ft 517 kts 341°
2026-05-08 08:10 31.29947 7.83882 31915 ft 515 kts 341°
2026-05-08 08:11 31.36930 7.82205 31898 ft 515 kts 341°
2026-05-08 08:11 31.43961 7.80514 31893 ft 514 kts 341°
2026-05-08 08:12 31.50972 7.78825 31902 ft 514 kts 341°
2026-05-08 08:12 31.57980 7.77135 31926 ft 514 kts 341°
2026-05-08 08:13 31.65000 7.75439 31898 ft 514 kts 341°
2026-05-08 08:13 31.72010 7.73743 31895 ft 514 kts 341°
2026-05-08 08:14 31.78974 7.72062 31908 ft 513 kts 341°
2026-05-08 08:14 31.85978 7.70406 31917 ft 513 kts 341°